Patterson, LA

1:56 AM CST on December 10, 2019 (GMT -0600)
Williams Memorial

Weather History for KPTN - November, 2019

Change the Weather History Date:

Sunday, November 17, 2019

  Actual Average Record
Temperature  
Mean Temperature 50 °F -  
Max Temperature 64 °F 69 °F 82 °F (2015)
Min Temperature 35 °F 51 °F 32 °F (1997)
Degree Days  
Heating Degree Days 16    
Moisture  
Dew Point 38 °F    
Average Humidity 81    
Maximum Humidity 100    
Minimum Humidity 33    
Precipitation  
Precipitation 0.00 in - - ()
Sea Level Pressure  
Sea Level Pressure 30.06 in    
Wind  
Wind Speed 1 mph (WSW)    
Max Wind Speed 9 mph    
Max Gust Speed -    
Visibility 7 miles    
Events Fog , Rain    
Averages and records for this station are not official NWS values.
T = Trace of Precipitation, MM = Missing Value Source: NWS Daily Summary

Daily Weather History Graph

Daily Weather History Graph

Search for Another Location

Airport or City:

Astronomy

Nov. 17, 2019 Rise Set
Actual Time 6:31 AM CST 5:08 PM CST
Civil Twilight 6:06 AM CST 5:34 PM CST
Nautical Twilight 5:37 AM CST 6:03 PM CST
Astronomical Twilight 5:08 AM CST 6:31 PM CST
Moon 9:50 PM CST (11/17) 11:11 AM CST (11/17)
Length of Visible Light 11h 28m
Length of Day
10h 37m
Waning Gibbous, 73% of the Moon is Illuminated
Nov 17
Waning Gibbous
Nov 19
Last Quarter
Nov 26
New
Dec 4
First Quarter
Dec 11
Full

Hourly Weather History & Observations

Time (CST) Temp. Windchill Dew Point Humidity Pressure Visibility Wind Dir Wind Speed Gust Speed Precip Events Conditions
12:56 AM 39.9 °F - 37.0 °F 89% 30.10 in 10.0 mi Calm Calm - N/A   Clear
1:56 AM 37.9 °F - 37.0 °F 97% 30.10 in 10.0 mi Calm Calm - N/A   Clear
4:56 AM 36.0 °F - 36.0 °F 100% 30.07 in 4.0 mi Calm Calm - N/A   Partly Cloudy
5:37 AM 35.6 °F - 35.6 °F 100% 30.08 in 1.5 mi Calm Calm - N/A   Partly Cloudy
5:41 AM 35.6 °F - 35.6 °F 100% 30.08 in 0.8 mi Calm Calm - N/A   Mist
5:56 AM 36.0 °F - 36.0 °F 100% 30.08 in 1.0 mi Calm Calm - 0.00 in Rain Light Rain
6:07 AM 35.6 °F - 35.6 °F 100% 30.08 in 2.0 mi Calm Calm - 0.00 in Rain Light Rain
6:21 AM 35.6 °F - 35.6 °F 100% 30.09 in 0.5 mi Calm Calm - 0.00 in Fog Fog
6:43 AM 35.6 °F - 35.6 °F 100% 30.08 in 0.2 mi Calm Calm - 0.00 in Fog Fog
6:56 AM 36.0 °F - 36.0 °F 100% 30.10 in 0.2 mi Calm Calm - 0.00 in Fog Fog
6:59 AM 35.6 °F - 35.6 °F 100% 30.10 in 0.8 mi Calm Calm - N/A   Mostly Cloudy
7:11 AM 37.4 °F - 37.4 °F 100% 30.10 in 0.2 mi Calm Calm - N/A Fog Fog
7:23 AM 37.4 °F - 37.4 °F 100% 30.10 in 0.8 mi Calm Calm - N/A   Mist
7:25 AM 37.4 °F - 37.4 °F 100% 30.10 in 1.2 mi Calm Calm - N/A   Partly Cloudy
7:38 AM 39.2 °F - 39.2 °F 100% 30.11 in 8.0 mi Calm Calm - N/A   Partly Cloudy
7:56 AM 43.0 °F - 42.1 °F 97% 30.11 in 10.0 mi Calm Calm - N/A   Clear
8:56 AM 50.0 °F - 43.0 °F 77% 30.12 in 10.0 mi Calm Calm - N/A   Clear
9:56 AM 57.9 °F - 39.9 °F 51% 30.11 in 10.0 mi SSW 3.5 mph - N/A   Clear
10:56 AM 61.0 °F - 34.0 °F 36% 30.09 in 10.0 mi Calm Calm - N/A   Clear
11:56 AM 63.0 °F - 36.0 °F 37% 30.06 in 10.0 mi NW 4.6 mph - N/A   Clear
12:56 PM 64.0 °F - 36.0 °F 35% 30.03 in 10.0 mi West 5.8 mph - N/A   Clear
1:56 PM 64.9 °F - 35.1 °F 33% 30.01 in 10.0 mi NW 5.8 mph - N/A   Clear
2:56 PM 64.9 °F - 37.9 °F 37% 29.99 in 10.0 mi West 9.2 mph - N/A   Clear
3:56 PM 63.0 °F - 39.0 °F 41% 29.98 in 10.0 mi West 5.8 mph - N/A   Clear
4:56 PM 55.9 °F - 39.9 °F 55% 29.97 in 10.0 mi WSW 5.8 mph - N/A   Clear
5:56 PM 53.1 °F - 41.0 °F 64% 29.98 in 10.0 mi West 5.8 mph - N/A   Clear
6:56 PM 48.9 °F - 43.0 °F 80% 30.00 in 10.0 mi WSW 4.6 mph - N/A   Clear
7:56 PM 46.9 °F - 44.1 °F 90% 30.00 in 10.0 mi SSW 4.6 mph - N/A   Clear
8:56 PM 44.1 °F 42.5 °F 43.0 °F 96% 30.01 in 10.0 mi SW 3.5 mph - N/A   Clear
9:56 PM 43.0 °F 41.3 °F 42.1 °F 97% 30.01 in 10.0 mi West 3.5 mph - N/A   Clear
10:56 PM 44.1 °F 42.5 °F 43.0 °F 96% 30.01 in 10.0 mi WSW 3.5 mph - N/A   Clear
11:56 PM 43.0 °F - 42.1 °F 97% 30.01 in 10.0 mi Calm Calm - N/A   Scattered Clouds